Regional Weather Roundup
Issued by NWS

Home | Current Version | Previous Version | Graphics & Text | Print | Product List | Glossary On
Versions: 1 2 3 4 5 6 7 8 9 10 11 12 13 14 15 16 17 18 19 20 21 22 23 24 25 26 27 28 29 30 31 32 33 34 35 36 37 38 39 40 41 42 43 44 45 46 47 48 49 50
000
ASUS43 KMPX 250601
RWRMN
WEATHER ROUNDUP FOR MINNESOTA
NATIONAL WEATHER SERVICE TWIN CITIES/CHANHASSEN MN
100 AM CDT SAT OCT 25 2014


NOTE: "FAIR" INDICATES FEW OR NO CLOUDS BELOW 12,000 FEET WITH NO
SIGNIFICANT WEATHER AND/OR OBSTRUCTIONS TO VISIBILITY. N/A MEANS
CURRENT SKY AND/OR WEATHER CONDITIONS ARE NOT AVAILABLE.

MNZ060>063-068>070-250700-
   Twin Cities Metro

CITY           SKY/WX    TMP DP  RH WIND       PRES   REMARKS
TWIN CITIES    MOCLDY    58  44  60 W8        29.90R
6HR MIN TEMP:  57; 6HR MAX TEMP:  64;

ST PAUL        CLEAR     57  47  69 NW3       29.90R
CRYSTAL        CLEAR     61  43  51 W9        29.90R
BLAINE         CLEAR     59  45  58 W8        29.90R
LAKEVILLE      CLEAR     55  45  67 W7        29.91R
EDEN PRAIRIE   PTCLDY    59  43  55 W7        29.90R
6HR MIN TEMP:  56; 6HR MAX TEMP:  63;

SOUTH ST PAUL  CLEAR     57  46  66 W6        29.90R
LAKE ELMO      FAIR      55  45  67 NW8       29.90R
$$
MNZ001>005-007-008-013>017-022>024-027-028-250700-
   Northwest Minnesota

CITY           SKY/WX    TMP DP  RH WIND       PRES   REMARKS
BEMIDJI        CLEAR     51  33  49 W13G21    29.87S
HALLOCK        CLEAR     50  32  50 W15       29.88R
ROSEAU         CLEAR     50  36  57 W15G21    29.83R
WARROAD        CLEAR     48  36  61 W13       29.81R
THIEF RVR FALL CLEAR     48  32  53 W14       29.89S
CROOKSTON      CLEAR     48  36  61 NW10      29.92R
FOSSTON        CLEAR     45  34  65 W8        29.92R
DETROIT LAKES  CLEAR     52  32  46 NW13      29.95R
MOORHEAD       PTCLDY    54  28  37 NW9       29.97R
PARK RAPIDS    CLEAR     53  32  44 NW17      29.90R
MAHNOMEN       FAIR      47  32  55 W14       29.92S
$$
MNZ006-009>011-018-025>026-250700-
   North Central Minnesota

CITY           SKY/WX    TMP DP  RH WIND       PRES   REMARKS
BAUDETTE       CLEAR     52  32  46 W9G23     29.78R
FLAG ISLAND    CLEAR     52  36  54 W26G33    29.75R
INTL FALLS     CLEAR     53  33  46 W20G26    29.75R
6HR MIN TEMP:  52; 6HR MAX TEMP:  64;

WASKISH        CLEAR     52  39  62 W16G22    29.83R
BIG FORK       CLEAR     55  34  44 W7        29.81S
LONGVILLE      CLEAR     55  34  44 W10G16    29.86R
GRAND RAPIDS   CLEAR     55  34  44 W9G17     29.83R
CRANE LAKE     CLEAR     54  32  43 W10G16    29.75S
ORR            CLEAR     54  30  40 W10G20    29.74S
COOK           CLEAR     54  36  50 W12G17    29.77S
WALKER         FAIR      54  33  44 W9        29.87R
$$
MNZ012-019>021-037-250700-
   Northeast Minnesota

CITY           SKY/WX    TMP DP  RH WIND       PRES   REMARKS
DULUTH         CLEAR     56  35  45 W13       29.79R
6HR MIN TEMP:  55; 6HR MAX TEMP:  62;

ELY            CLEAR     54  34  47 W7G17     29.74R
HIBBING        CLEAR     57  33  40 W14G24    29.79R
EVELETH        CLEAR     54  34  47 W10G16    29.79R
DULUTH HARBOR  CLEAR     55  45  67 SW12      29.79R
TWO HARBORS    CLEAR     61  23  23 W9G18     29.74R
SILVER BAY     CLEAR     59  36  41 W8G21     29.71R
GRAND MARAIS     N/A     57  40  52 W12G24    29.65S
G MARAIS ARPRT CLEAR     54  34  47 W16G29    29.68R
$$
MNZ029>031-032-039>041-046>048-054>057-064-250700-
   West Central Minnesota

CITY           SKY/WX    TMP DP  RH WIND       PRES   REMARKS
FERGUS FALLS   PTCLDY    54  28  37 NW13      29.98R
WHEATON        PTCLDY    55  36  47 NW9       30.01R
MORRIS         PTCLDY    55  37  50 NW13      29.97R
ALEXANDRIA     PTCLDY    56  34  43 NW14      29.95R
ELBOW LAKE     FAIR      51  36  55 W9        29.97R
WADENA         CLEAR     54  34  47 W8        29.92S
GLENWOOD       PTCLDY    55  36  47 W12       29.96R
APPLETON       MOCLDY    57  37  47 W8        29.99R
BENSON         MOCLDY    55  37  50 N8        29.98R
ORTONVILLE     PTCLDY    57  36  44 NW9       30.00R
MADISON        MOCLDY    59  41  51 NW8       30.00R
WILLMAR        FAIR      54  41  62 W7        29.98R
$$
MNZ033>034-036-042>043-049>051-058-059-250700-
   Central Minnesota

CITY           SKY/WX    TMP DP  RH WIND       PRES   REMARKS
ST CLOUD       PTCLDY    60  37  42 NW12      29.91R
6HR MIN TEMP:  54; 6HR MAX TEMP:  64;

SAUK CENTRE    FAIR      55  34  45 W7        29.94R
PAYNESVILLE    CLOUDY    54  36  50 SW7       29.95R
AITKIN         CLEAR     57  34  41 W6        29.85R
PINE RIVER     CLEAR     55  36  47 W7        29.91S
BRAINERD       CLEAR     53  33  46 W8        29.90R
STAPLES        CLEAR     50  32  50 W9        29.91R
LONG PRAIRIE   FAIR      54  32  43 W12       29.93S
LITTLE FALLS   CLEAR     54  34  47 W3        29.91R
LITCHFIELD     PTCLDY    63  36  36 NW8       29.95R
BUFFALO        PTCLDY    59  41  50 W8        29.93R
MAPLE LAKE     PTCLDY    60  43  52 W8        29.93R
$$
MNZ037-044-045-052-053-250700-
   East Central Minnesota

CITY           SKY/WX    TMP DP  RH WIND       PRES   REMARKS
PRINCETON      CLEAR     55  41  58 W6        29.91R
MORA           CLEAR     55  37  50 W6        29.89R
CAMBRIDGE      CLEAR     59  43  55 W7        29.88R
RUSH CITY      MOCLDY    50  42  74 W3        29.88R
MOOSE LAKE     CLEAR     54  36  50 W7        29.82R
HINCKLEY       FAIR      55  41  58 W7        29.86R
CLOQUET        CLEAR     55  34  44 W9        29.81R
MCGREGOR       CLEAR     55  36  47 W6        29.86R
$$
MNZ071>073-080-081-089-090-097-098-250700-
   Southwest Minnesota

CITY           SKY/WX    TMP DP  RH WIND       PRES   REMARKS
MONTEVIDEO     PTCLDY    57  41  54 NW7       30.00R
GRANITE FALLS  PTCLDY    51  42  72 W6        30.01R
CANBY          MOCLDY    58  40  51 NW7       30.02R
MARSHALL       PTCLDY    55  39  54 NW8       29.99R
REDWOOD FALLS  MOCLDY    58  41  53 NW9       29.98R
OLIVIA         PTCLDY    54  43  66 W8        29.97R
PIPESTONE      PTCLDY    55  39  54 N3        30.02R
WINDOM         PTCLDY    52  41  66 W8        30.00R
WORTHINGTON    PTCLDY    57  41  54 NW7       30.03R
JACKSON        PTCLDY    55  41  58 W8        30.00S
TRACY          PTCLDY    60  41  49 NW8       30.00R
SLAYTON        PTCLDY    54  40  61 NW5       30.02R
$$
MNZ065>067-074>077-082>085-091>093-250700-
   South Central Minnesota

CITY           SKY/WX    TMP DP  RH WIND       PRES   REMARKS
MANKATO        CLEAR     59  39  47 NW12      29.95R
NEW ULM        PTCLDY    54  43  66 NW7       29.96R
ST JAMES       PTCLDY    59  41  51 NW8       29.98R
FAIRMONT       CLEAR     57   1  10 NW13      29.98R
GLENCOE        PTCLDY    59  44  56 W8        29.93R
FARIBAULT      CLEAR     54  46  76 W5        29.93S
OWATONNA       CLEAR     52  45  76 W5        29.94R
WASECA         CLEAR     45  37  76 W5        29.96R
ALBERT LEA     CLEAR     55  45  67 W6        29.95R
$$
MNZ078>079-086>088-094>096-250700-
   Southeast Minnesota

CITY           SKY/WX    TMP DP  RH WIND       PRES   REMARKS
ROCHESTER      CLEAR     51  49  92 W8        29.92S
6HR MIN TEMP:  49; 6HR MAX TEMP:  57; 6HR PCP: TRACE;

RED WING       PTCLDY    45  45 100 CALM      29.89R FOG
STANTON        CLEAR     56  46  70 W8        29.90S
DODGE CENTER   PTCLDY    50  46  87 W10       29.94R
WINONA         PTCLDY    55  54  94 CALM      29.89S FOG
AUSTIN         CLEAR     46  46 100 SW3       29.93S FOG
PRESTON          N/A     52  51  97 SW7       29.92F FOG
$$
ABBREVIATIONS USED IN REMARKS
   TC - TEMPERATURES IN CELSIUS
  WCI - WIND CHILL INDEX
   HX - HEAT INDEX
  VSB - VISIBILITY
$$



USA.gov is the U.S. government's official web portal to all federal, state and local government web resources and services.